Flag for Portugal Weather past 2 weeks in Vila Nova de Gaia, Portugal

Now
50 °F

Passing clouds.


Feels Like: 47 °F
Forecast: 46 / 61 °F
Wind: 8 mph from Northeast

Location: Porto / Pedras Rubras

Current Time: Mar 5, 2015 at 5:02:19 AM

Latest Report: Mar 5, 2015 at 4:00 AM


Visibility: N/A

Pressure: 30.51 "Hg

Humidity: 47%

Dew point: 30 °F

Location of Vila Nova de GaiaLocation

Historic Weather in Vila Nova de Gaia — Graph

°F

Vila Nova de Gaia temperature yesterday

Maximum temperature yesterday: 61 °F (at 4:00 PM)
Minimum temperature yesterday: 45 °F (at 7:00 AM)
Average temperature yesterday: 54 °F

Past Weeks' High & Low Weather Summary

 TemperatureHumidityPressure
High61 °F (Feb 19, 1:00 PM)100% (Feb 20, 3:30 PM)30.60 "Hg (Feb 20, 3:30 PM)
Low37 °F (Feb 18, 3:30 AM)31% (Feb 18, 2:30 PM)29.92 "Hg (Feb 21, 1:00 AM)
Average52 °F85%30.33 "Hg
* Reported Feb 18 3:00 AM — Mar 5 3:30 AM, Vila Nova de Gaia, Weather by CustomWeather, © 2015

Note: Actual official high and low records may vary slightly from our data, if they occured in-between our weather recording intervals... More about our weather records

Advertising

Vila Nova de Gaia weather history for previous 24 hours

 ConditionsComfort  
Time TempWeatherWind HumidityBarometerVisibility
3:30 AM
Thu, Mar 5
50 °FPassing clouds.12 mph47%30.51 "HgN/A
3:00 AM52 °FClear.18 mph44%30.51 "Hg10 mi
2:00 AM52 °FClear.9 mph50%30.54 "Hg10 mi
1:30 AM54 °FClear.14 mph44%30.54 "Hg10 mi
1:00 AM54 °FClear.15 mph44%30.54 "Hg10 mi
12:30 AM55 °FClear.12 mph44%30.54 "Hg10 mi
12:00 AM54 °FClear.9 mph54%30.54 "Hg10 mi
11:30 PM
Wed, Mar 4
46 °FClear.7 mph87%30.57 "Hg10 mi
11:00 PM48 °FClear.7 mph82%30.54 "Hg10 mi
10:30 PM54 °FClear.7 mph67%30.54 "Hg10 mi
10:00 PM55 °FClear.6 mph63%30.54 "Hg10 mi
9:00 PM55 °FPassing clouds.6 mph63%30.51 "HgN/A
8:30 PM52 °FPassing clouds.5 mph77%30.51 "HgN/A
8:00 PM52 °FPassing clouds.3 mph77%30.51 "HgN/A
7:30 PM55 °FClear.3 mph67%30.51 "Hg10 mi
7:00 PM54 °FPassing clouds.7 mph72%30.48 "HgN/A
6:30 PM55 °FClear.7 mph72%30.48 "Hg10 mi
6:00 PM59 °FSunny.8 mph63%30.45 "Hg10 mi
5:30 PM61 °FSunny.9 mph55%30.45 "Hg10 mi
5:00 PM61 °FSunny.9 mph55%30.45 "Hg10 mi
4:30 PM61 °FSunny.12 mph55%30.45 "Hg10 mi
4:00 PM61 °FSunny.10 mph55%30.45 "Hg10 mi
3:30 PM59 °FSunny.13 mph63%30.45 "Hg10 mi
3:00 PM59 °FPassing clouds.14 mph63%30.48 "HgN/A
2:30 PM59 °FPassing clouds.13 mph63%30.48 "HgN/A
2:00 PM59 °FSunny.14 mph63%30.48 "Hg10 mi
1:30 PM59 °FSunny.10 mph68%30.48 "Hg10 mi
1:00 PM59 °FSunny.12 mph68%30.48 "Hg10 mi
12:30 PM57 °FSunny.10 mph72%30.48 "Hg10 mi
12:00 PM59 °FPassing clouds.5 mph55%30.48 "HgN/A
11:30 AM59 °FPassing clouds.6 mph59%30.48 "HgN/A
11:00 AM57 °FPassing clouds.8 mph67%30.51 "HgN/A
10:30 AM57 °FPassing clouds.7 mph67%30.51 "HgN/A
10:00 AM55 °FPassing clouds.7 mph72%30.48 "HgN/A
9:30 AM52 °FPassing clouds.10 mph77%30.48 "HgN/A
9:00 AM50 °FPassing clouds.7 mph82%30.48 "HgN/A
8:30 AM50 °FPassing clouds.6 mph82%30.48 "HgN/A
8:00 AM48 °FSunny.9 mph87%30.45 "Hg10 mi
7:30 AM46 °FSunny.7 mph93%30.45 "Hg10 mi
7:00 AM45 °FPassing clouds.8 mph100%30.45 "HgN/A
6:30 AM46 °FClear.9 mph100%30.42 "Hg10 mi
6:00 AM48 °FSnow. Overcast.5 mph100%30.42 "Hg5 mi
5:30 AM48 °FPassing clouds.2 mph100%30.42 "Hg5 mi
5:00 AM48 °FClear.5 mph100%30.42 "Hg4 mi
Weather by CustomWeather, © 2015

See weather overviewHow to use our weather pages